Regional Weather Roundup
Issued by NWS

Home | Current Version | Previous Version | Graphics & Text | Print | Product List | Glossary On
Versions: 1 2 3 4 5 6 7 8 9 10 11 12 13 14 15 16 17 18 19 20 21 22 23 24 25 26 27 28 29 30 31 32 33 34 35 36 37 38 39 40 41 42 43 44 45 46 47 48 49 50
000
ASUS43 KFSD 051010
RWRSD

WEATHER ROUNDUP FOR SOUTH DAKOTA
NATIONAL WEATHER SERVICE SIOUX FALLS SD
400 AM CST FRI FEB 05 2016

NOTE: "FAIR" INDICATES FEW OR NO CLOUDS BELOW 12,000 FEET WITH NO
SIGNIFICANT WEATHER AND/OR OBSTRUCTIONS TO VISIBILITY.


SDZ001>005-009-010-012>017-051100-
NORTHWEST AND NORTH CENTRAL SOUTH DAKOTA

CITY           SKY/WX    TMP DP  RH WIND       PRES   REMARKS
BUFFALO          N/A     32  26  78 W18       30.02R WCI  20
FAITH            N/A     31  22  69 W14       30.06R WCI  21
MOBRIDGE       CLOUDY    26  22  84 SE3       30.04F
$$

SDZ012>016-024>037-041>051-057-063-072>074-051100-
SOUTHWEST AND SOUTH CENTRAL SOUTH DAKOTA

CITY           SKY/WX    TMP DP  RH WIND       PRES   REMARKS
RAPID CTY ARPT CLOUDY    33  22  63 NW18G25   30.10R WCI  22
PIERRE         CLOUDY    24  19  81 SW3       30.09S
CUSTER         CLOUDY    25  15  66 NW17G35   30.05S WCI  12
ELLSWORTH AFB  CLOUDY    33  22  64 NW17      30.09R WCI  22
PHILIP         CLOUDY    30  24  78 W8        30.11R WCI  22
PINE RIDGE     CLEAR     27  18  69 W8        30.14R WCI  19
SPEARFISH      MIX PCPN  30  25  80 W13G25    30.13R WCI  20
WINNER         PTSUNNY   29  19  66 SW8       30.12S WCI  21
$$

SDZ004>011-016>023-039-040-051100-
NORTHEAST SOUTH DAKOTA

CITY           SKY/WX    TMP DP  RH WIND       PRES   REMARKS
ABERDEEN       CLOUDY    22  16  78 S10       30.12F WCI  11
WATERTOWN      CLOUDY    14   9  80 S12       30.14F WCI   0
BROOKINGS      CLOUDY    12   9  87 S12       30.18F WCI  -2
SISSETON         N/A     17  13  84 SE10      30.14F WCI   5
$$

SDZ017-020-022-023-036>040-048>070-051100-
SOUTHEAST SOUTH DAKOTA

CITY           SKY/WX    TMP DP  RH WIND       PRES   REMARKS
SIOUX FALLS    CLOUDY    17  12  80 S6        30.24S WCI   9
HURON          CLOUDY    20  15  81 S12       30.15F WCI   8
CHAMBERLAIN    CLOUDY    24  19  83 S5        30.12F WCI  18
MITCHELL       CLEAR     20  15  81 S12       30.18F WCI   8
YANKTON        CLOUDY    12  10  92 CALM      30.24F
$$

ABBREVIATIONS USED IN REMARKS
   TC - TEMPERATURE IN CELSIUS
  WCI - WIND CHILL INDEX
   HX - HEAT INDEX
  VSB - VISIBILITY




USA.gov is the U.S. government's official web portal to all federal, state and local government web resources and services.